TimeEST,TemperatureF,Dew PointF,Humidity,Sea Level PressureIn,VisibilityMPH,Wind Direction,Wind SpeedMPH,Gust SpeedMPH,PrecipitationIn,Events,Conditions,WindDirDegrees,DateUTC
12:51 AM,53.1,36.0,52,30.06,10.0,SSW,3.5,-,N/A,,Clear,200,2013-03-05 05:51:00
2:44 AM,53.6,39.2,58,30.08,10.0,Calm,Calm,-,N/A,,Overcast,0,2013-03-05 07:44:00
2:51 AM,53.1,39.9,61,30.08,10.0,Calm,Calm,-,N/A,,Overcast,0,2013-03-05 07:51:00
3:25 AM,53.6,41.0,62,30.08,10.0,Calm,Calm,-,N/A,,Overcast,0,2013-03-05 08:25:00
3:36 AM,53.6,41.0,62,30.08,10.0,SW,3.5,-,N/A,,Overcast,220,2013-03-05 08:36:00
3:51 AM,52.0,42.1,69,30.07,10.0,Calm,Calm,-,0.00,Rain,Light Rain,0,2013-03-05 08:51:00
3:58 AM,51.8,42.8,71,30.08,10.0,SSW,3.5,-,0.00,Rain,Light Rain,200,2013-03-05 08:58:00
4:15 AM,51.8,42.8,71,30.07,10.0,SSW,3.5,-,0.00,,Overcast,200,2013-03-05 09:15:00
4:25 AM,51.8,42.8,71,30.07,10.0,South,5.8,-,0.00,,Overcast,180,2013-03-05 09:25:00
4:51 AM,52.0,42.1,69,30.06,10.0,South,5.8,-,0.00,,Overcast,190,2013-03-05 09:51:00
5:51 AM,52.0,42.1,69,30.05,10.0,SSW,8.1,-,N/A,,Scattered Clouds,200,2013-03-05 10:51:00
6:51 AM,52.0,42.1,69,30.06,10.0,SSW,8.1,-,N/A,,Mostly Cloudy,210,2013-03-05 11:51:00
7:51 AM,51.8,42.8,71,30.06,10.0,SSW,8.1,-,N/A,,Scattered Clouds,210,2013-03-05 12:51:00
8:51 AM,54.0,45.0,72,30.06,10.0,SSW,6.9,-,N/A,,Overcast,200,2013-03-05 13:51:00
9:51 AM,55.9,48.0,75,30.04,10.0,SSW,5.8,-,N/A,,Overcast,210,2013-03-05 14:51:00
10:51 AM,57.9,50.0,75,30.02,10.0,SW,9.2,-,N/A,,Overcast,220,2013-03-05 15:51:00
11:51 AM,62.1,52.0,70,29.98,10.0,SSW,13.8,21.9,N/A,,Mostly Cloudy,210,2013-03-05 16:51:00
12:51 PM,66.9,53.1,61,29.94,10.0,WSW,15.0,20.7,0.01,,Overcast,240,2013-03-05 17:51:00
1:03 PM,66.2,53.6,64,29.93,10.0,WSW,12.7,24.2,N/A,,Overcast,240,2013-03-05 18:03:00
1:51 PM,70.0,53.1,55,29.86,10.0,SW,17.3,23.0,N/A,,Mostly Cloudy,220,2013-03-05 18:51:00
2:51 PM,72.0,52.0,49,29.83,10.0,WSW,13.8,26.5,N/A,,Overcast,240,2013-03-05 19:51:00
3:51 PM,72.0,51.1,48,29.80,10.0,WSW,17.3,27.6,N/A,,Overcast,240,2013-03-05 20:51:00
4:51 PM,72.0,52.0,49,29.73,10.0,SW,25.3,36.8,N/A,Thunderstorm,Overcast,230,2013-03-05 21:51:00
5:04 PM,64.4,53.6,68,29.83,2.5,NW,33.4,51.8,0.00,Rain-Thunderstorm,Light Rain,320,2013-03-05 22:04:00
5:11 PM,60.8,53.6,77,29.82,10.0,NW,23.0,49.5,0.04,Rain-Thunderstorm,Light Rain,310,2013-03-05 22:11:00
5:18 PM,60.8,53.6,77,29.84,10.0,WNW,18.4,29.9,0.04,Rain,Light Rain,300,2013-03-05 22:18:00
5:24 PM,60.8,53.6,77,29.84,3.0,NW,21.9,28.8,0.04,Rain,Light Rain,310,2013-03-05 22:24:00
5:43 PM,60.8,53.6,77,29.84,5.0,NW,18.4,26.5,0.07,Rain,Light Rain,310,2013-03-05 22:43:00
5:51 PM,59.0,53.1,81,29.85,10.0,WNW,13.8,23.0,0.07,Rain,Light Rain,300,2013-03-05 22:51:00
6:51 PM,57.9,53.1,84,29.88,10.0,WNW,11.5,-,0.00,,Mostly Cloudy,300,2013-03-05 23:51:00
7:51 PM,55.0,44.1,67,29.92,10.0,NW,15.0,21.9,N/A,,Clear,310,2013-03-06 00:51:00
8:43 PM,51.8,41.0,67,29.97,10.0,NW,13.8,-,N/A,,Mostly Cloudy,320,2013-03-06 01:43:00
8:51 PM,51.1,39.9,66,29.98,10.0,NW,18.4,29.9,N/A,,Mostly Cloudy,320,2013-03-06 01:51:00
9:51 PM,46.0,33.1,61,30.02,10.0,NW,24.2,31.1,N/A,,Partly Cloudy,320,2013-03-06 02:51:00
10:51 PM,44.1,30.0,58,30.05,10.0,NW,12.7,-,N/A,,Clear,320,2013-03-06 03:51:00
11:51 PM,42.1,30.0,62,30.04,10.0,WNW,8.1,-,N/A,,Clear,300,2013-03-06 04:51:00